Location: Arbon
(43.0005°N, 0.7472°E)
Time: 14:31:07
(UTC+00:00)

SR - Pass Details

Date: 01 December 2020
Orbit: 575 x 880 km, 66.7° (Epoch: 17 January)

Event Time Altitude Azimuth Distance (km) Brightness Sun altitude
Rises 17:51:41 0° 216° (SW) 2,795 ? -15.7°
Reaches altitude 10° 17:53:52 10° 219° (SW) 1,919 ? -16.1°
Maximum altitude 17:58:09 68° 303° (WNW) 666 ? -16.9°
Enters shadow 18:01:27 18° 24° (NNE) 1,562 ? -17.4°
